Location: Beccas
(43.4309°N, 0.1528°E)
Time: 00:57:42
(UTC+00:00)

CZ-4C R/B - Pass Details

Date: 15 October 2021
Orbit: 403 x 482 km, 97.7° (Epoch: 02 December)

Event Time Altitude Azimuth Distance (km) Brightness Sun altitude
Rises 17:51:30 0° 20° (NNE) 2,514 6.4 -7.2°
Reaches altitude 10° 17:53:41 10° 29° (NNE) 1,619 5.4 -7.6°
Maximum altitude 17:56:56 37° 98° (E) 722 3.4 -8.2°
Drops below altitude 10° 18:00:05 10° 168° (SSE) 1,563 5.6 -8.7°
Sets 18:02:09 0° 177° (S) 2,412 6.6 -9.1°
